012  
NZUS99 KDVN 191710  
HRRRRR  
HOURLY WEATHER ROUNDUP  
NATIONAL WEATHER SERVICE QUAD CITIES IA IL  
1100 AM CST SUN JAN 19 2020  
 
NOTE: "FAIR" INDICATES FEW OR NO CLOUDS BELOW 12,000 FEET WITH  
NO SIGNIFICANT WEATHER AND/OR OBSTRUCTIONS TO VISIBILITY.  
------------------------------------------------------------------  
 
CITY SKY/WX TMP DP RH WIND PRES REMARKS  
BURLINGTON CLOUDY 4 -4 69 NW15G25 30.49R WCI -14  
CEDAR RAPIDS CLOUDY 2 -3 80 NW18 30.45R HAZE WCI -19  
DAVENPORT CLOUDY 4 -2 76 NW21 30.45R HAZE WCI -17  
DUBUQUE CLOUDY 6 -1 73 N12 30.37R WCI -9  
IOWA CITY CLOUDY 5 -3 69 NW16 30.50R WCI -14  
MOLINE CLOUDY 5 -2 72 NW15G26 30.44R HAZE WCI -13  
------------------------------------------------------------------  
THE STATIONS BELOW ARE NOT NWS STATIONS AND ARE NOT SUBJECT TO NWS  
QUALITY CONTROL. SOME STATIONS DO NOT REPORT WEATHER SUCH AS FOG.  
* - STATIONS THAT REPORT TMP AND DP IN WHOLE DEGREES CELSIUS, WHICH  
ARE THEN CONVERTED TO FAHRENHEIT.  
------------------------------------------------------------------  
 
CITY SKY/WX TMP DP RH WIND PRES REMARKS  
CLINTON FLURRIES 5 1 83 NW17 30.42R WCI -14  
FAIRFIELD * PTSUNNY 1 -2 85 NW18 30.51R HAZE WCI -19  
FORT MADISON * CLOUDY 3 -2 78 W16 30.50R WCI -16  
FREEPORT FAIR 7 1 76 NW12 30.36R WCI -8  
INDEPENDENCE FLURRIES 5 -1 76 NW13 30.44R WCI -12  
KEOKUK * CLOUDY 5 -2 72 W16 30.51R WCI -14  
MACOMB CLOUDY 6 -1 74 NW20 30.50R HAZE WCI -15  
MONTICELLO * CLOUDY 5 0 78 NW17G23 30.42R WCI -14  
MT PLEASANT * NOT AVBL  
MUSCATINE * PTSUNNY 5 -2 72 NW17 30.50R WCI -14  
SAVANNA * FLURRIES 9 1 72 NW10 30.41R WCI -6  
STERLING/R.F. FLURRIES 9 1 72 W17 30.40R WCI -10  
VINTON LGT SNOW 6 -1 74 NW12G18 30.47R WCI -10  
WASHINGTON * FLURRIES 3 0 85 NW21 30.49R WCI -18  
------------------------------------------------------------------  
 
 
CLICK HERE TO GO TO PREVIOUS BULLETINS.

The Nexlab IL Page
The Nexlab IA Page
The Nexlab MO Page Main Text Page